Aérodrome :
LOGIN :

S'inscrire | Disclaimer

   EN    FR    IT 

 










Légende :    VFR   VFR Marginal   IFR   IFR Intensif   IFR Très Intensif
Visi : 
Plafond : 
>= 8 km
>= 3000ft
5 à 8 km
1000 à 3000 ft
1500m à 5 km
500 à 1000 ft
800 à 1500m
200 à 500 ft
< 800m
< 200 ft
Symboles :   Orages  Brouillard  Fortes neiges  Fortes précipitations  Vent > 20 kt
SIGMETs :   Divers  Orages  Givrage  Turbulence  Onde Orograph.  Cendres Volcan.







- Altitude de l'aérodrome : 121 ft
- Code IATA : HUY
- Voir les cartes d'approche


EGNJ - Humberside

DERNIER METAR :
  • 270750Z VRB02KT 9999 VCSH FEW013 SCT030 09/05 Q1010

METARs EXPIRÉS :
  • 270720Z 22003KT 9999 FEW013 SCT030 08/05 Q1010
  • 270650Z 22004KT 9999 FEW013 08/05 Q1010
  • 270620Z 21006KT 9999 FEW011 07/05 Q1010
  • 270550Z 19004KT 9999 FEW012 06/04 Q1010
  • 270520Z 21003KT 9999 FEW014 05/04 Q1010

TAF TAF EGNJ
Valide du 27 à 06h jusqu'au 27 à 15h UTC


270502Z 2706/2715 15006KT 9999 FEW045
PROB30
TEMPO 2706/2708 9000
BECMG 2708/2711 8000 -RA
TEMPO 2709/2715 RA BKN012
PROB30
TEMPO 2713/2715 BKN008
ATIS : +44 1652 682 020
Pas de NOTAMs connus pour ce terrain.



MET'MAP, la Météo Aéronautique d'un coup d'oeil ! - Copyright ORBIFLY Décembre 2007 - Disclaimer

ORBIFLY MET'MAP TEAM :

Programmation & Développement : Alexandra Zaïnal
Conception & Développement : Baudouin d'Aumeries
Co-Programmation & Développement : Marc-Olivier Méhu
Soutien technique & logistique : Manuel Goepfert

Contact : metmap@orbifly.com




SOURCES & CREDITS :

   NOAA